Wichita Falls, TX

7:04 AM CST on February 10, 2016 (GMT -0600)
Sheppard Air Force Base-Wichita Falls Municipal

Weather History for KSPS - September, 2013

Change the Weather History Date:

Friday, September 27, 2013

  Actual Average Record
Temperature  
Mean Temperature 78 °F 71 °F  
Max Temperature 90 °F 84 °F 103 °F (1977)
Min Temperature 65 °F 59 °F 38 °F (1942)
Degree Days  
Heating Degree Days 0 1  
Month to date heating degree days 0 9  
Since 1 July heating degree days 0 9  
Cooling Degree Days 13 7  
Month to date cooling degree days 436 315  
Year to date cooling degree days 2495 2260  
Growing Degree Days 27 (Base 50)    
Moisture  
Dew Point 63 °F    
Average Humidity 63    
Maximum Humidity 81    
Minimum Humidity 44    
Precipitation  
Precipitation 0.00 in 0.08 in 6.19 in (1980)
Month to date precipitation 1.35 2.58  
Year to date precipitation 16.83 22.31  
Sea Level Pressure  
Sea Level Pressure 29.80 in    
Wind  
Wind Speed 15 mph (SSE)    
Max Wind Speed 26 mph    
Max Gust Speed 33 mph    
Visibility 10 miles    
Events      
T = Trace of Precipitation, MM = Missing Value Source: NWS Daily Summary

Daily Weather History Graph

Daily Weather History Graph

Search for Another Location

Airport or City:

Trip Planner

Search our weather history database for the weather conditions in past years. The results will help you decide how hot, cold, wet, or windy it might be!

Date:

Astronomy

Sep. 27, 2013 Rise Set
Actual Time 7:25 AM CDT 7:23 PM CDT
Civil Twilight 7:00 AM CDT 7:48 PM CDT
Nautical Twilight 6:31 AM CDT 8:17 PM CDT
Astronomical Twilight 6:02 AM CDT 8:46 PM CDT
Moon 12:37 AM CDT (9/27) 2:48 PM CDT (9/27)
Length of Visible Light 12h 47m
Length of Day
11h 57m
Last Quarter, 45% of the Moon is Illuminated
Sep 27
Last Quarter
Oct 4
New
Oct 11
First Quarter
Oct 18
Full
Oct 26
Last Quarter

Hourly Weather History & Observations

Time (CDT) Temp. Heat Index Dew Point Humidity Pressure Visibility Wind Dir Wind Speed Gust Speed Precip Events Conditions
12:52 AM 72.0 °F - 53.1 °F 51% 29.81 in 10.0 mi SSE 11.5 mph - N/A   Clear
1:52 AM 70.0 °F - 53.1 °F 55% 29.82 in 10.0 mi SSE 10.4 mph - N/A   Clear
2:52 AM 68.0 °F - 53.1 °F 59% 29.83 in 10.0 mi SE 5.8 mph - N/A   Clear
3:52 AM 66.0 °F - 54.0 °F 65% 29.82 in 10.0 mi SE 3.5 mph - N/A   Clear
4:52 AM 66.0 °F - 55.9 °F 70% 29.82 in 10.0 mi SSE 8.1 mph - N/A   Clear
5:52 AM 68.0 °F - 60.1 °F 76% 29.83 in 10.0 mi SSE 9.2 mph - N/A   Clear
6:52 AM 70.0 °F - 62.1 °F 76% 29.84 in 10.0 mi South 9.2 mph - N/A   Clear
7:52 AM 68.0 °F - 63.0 °F 84% 29.86 in 10.0 mi SE 4.6 mph - N/A   Clear
8:52 AM 73.9 °F - 66.9 °F 79% 29.86 in 10.0 mi SSE 9.2 mph - N/A   Clear
9:52 AM 78.1 °F - 68.0 °F 71% 29.86 in 10.0 mi South 13.8 mph - N/A   Clear
10:52 AM 82.9 °F 85.8 °F 68.0 °F 60% 29.86 in 10.0 mi SSE 16.1 mph - N/A   Clear
11:52 AM 86.0 °F 88.8 °F 66.9 °F 53% 29.84 in 10.0 mi SSE 16.1 mph - N/A   Clear
12:52 PM 88.0 °F 89.3 °F 64.0 °F 45% 29.82 in 10.0 mi SSE 17.3 mph 27.6 mph N/A   Clear
1:52 PM 89.1 °F 91.3 °F 66.0 °F 46% 29.80 in 10.0 mi SSE 21.9 mph 27.6 mph N/A   Partly Cloudy
2:52 PM 89.1 °F 91.3 °F 66.0 °F 46% 29.78 in 10.0 mi SSE 21.9 mph 28.8 mph N/A   Scattered Clouds
3:52 PM 89.1 °F 91.3 °F 66.0 °F 46% 29.75 in 10.0 mi South 21.9 mph 27.6 mph N/A   Scattered Clouds
4:52 PM 89.1 °F 91.3 °F 66.0 °F 46% 29.75 in 10.0 mi South 21.9 mph 31.1 mph N/A   Partly Cloudy
5:52 PM 89.1 °F 91.0 °F 64.9 °F 45% 29.74 in 10.0 mi SSE 23.0 mph 31.1 mph N/A   Partly Cloudy
6:52 PM 86.0 °F 88.8 °F 66.9 °F 53% 29.74 in 10.0 mi SSE 23.0 mph 28.8 mph N/A   Partly Cloudy
7:52 PM 82.9 °F 85.8 °F 68.0 °F 60% 29.75 in 10.0 mi SSE 17.3 mph - N/A   Clear
8:52 PM 81.0 °F 84.1 °F 69.1 °F 67% 29.76 in 10.0 mi SSE 17.3 mph 26.5 mph N/A   Clear
9:52 PM 81.0 °F 84.1 °F 69.1 °F 67% 29.77 in 10.0 mi SSE 16.1 mph 26.5 mph N/A   Clear
10:52 PM 80.1 °F 82.9 °F 69.1 °F 69% 29.79 in 10.0 mi SE 11.5 mph - N/A   Partly Cloudy
11:52 PM 80.1 °F 83.2 °F 70.0 °F 71% 29.79 in 10.0 mi SSE 13.8 mph - N/A   Clear